TimePST,TemperatureF,Dew PointF,Humidity,Sea Level PressureIn,VisibilityMPH,Wind Direction,Wind SpeedMPH,Gust SpeedMPH,PrecipitationIn,Events,Conditions,WindDirDegrees,DateUTC
12:53 AM,50.0,32.0,50,29.80,10.0,Calm,Calm,-,N/A,,Clear,0,2011-12-12 08:53:00
1:53 AM,48.9,34.0,56,29.79,10.0,Calm,Calm,-,N/A,,Clear,0,2011-12-12 09:53:00
2:53 AM,54.0,36.0,51,29.78,10.0,NNW,4.6,-,N/A,,Clear,330,2011-12-12 10:53:00
3:53 AM,48.9,34.0,56,29.76,10.0,WSW,3.5,-,N/A,,Clear,250,2011-12-12 11:53:00
4:53 AM,48.9,34.0,56,29.75,10.0,Calm,Calm,-,N/A,,Clear,0,2011-12-12 12:53:00
5:53 AM,48.0,36.0,63,29.77,10.0,Calm,Calm,-,N/A,,Clear,0,2011-12-12 13:53:00
6:53 AM,46.0,34.0,63,29.78,10.0,WSW,4.6,-,N/A,,Scattered Clouds,240,2011-12-12 14:53:00
7:53 AM,50.0,34.0,54,29.80,10.0,North,3.5,-,N/A,,Mostly Cloudy,350,2011-12-12 15:53:00
8:53 AM,52.0,37.9,59,29.80,10.0,Calm,Calm,-,N/A,,Mostly Cloudy,0,2011-12-12 16:53:00
9:53 AM,54.0,37.0,53,29.80,10.0,Calm,Calm,-,N/A,,Mostly Cloudy,0,2011-12-12 17:53:00
10:53 AM,55.0,36.0,49,29.79,10.0,SSW,3.5,-,N/A,,Mostly Cloudy,200,2011-12-12 18:53:00
11:53 AM,55.9,37.0,49,29.77,10.0,ESE,6.9,-,N/A,,Overcast,120,2011-12-12 19:53:00
12:53 PM,53.1,43.0,69,29.77,5.0,ESE,6.9,-,0.01,Rain,Light Rain,110,2011-12-12 20:53:00
1:53 PM,52.0,46.0,80,29.78,5.0,East,5.8,-,0.02,Rain,Light Rain,100,2011-12-12 21:53:00
2:35 PM,50.0,46.4,87,29.79,4.0,ESE,4.6,-,0.06,Rain,Rain,110,2011-12-12 22:35:00
2:53 PM,50.0,46.0,86,29.79,5.0,East,3.5,-,0.07,Rain,Light Rain,100,2011-12-12 22:53:00
3:01 PM,50.0,46.4,87,29.78,6.0,East,3.5,-,0.00,Rain,Light Rain,80,2011-12-12 23:01:00
3:18 PM,50.0,46.4,87,29.79,9.0,North,5.8,-,0.00,Rain,Light Rain,350,2011-12-12 23:18:00
3:53 PM,50.0,45.0,83,29.78,10.0,NW,8.1,-,0.01,Rain,Light Rain,320,2011-12-12 23:53:00
4:33 PM,50.0,42.8,76,29.78,10.0,North,3.5,-,0.00,,Overcast,10,2011-12-13 00:33:00
4:53 PM,50.0,42.8,76,29.79,10.0,Calm,Calm,-,N/A,,Overcast,0,2011-12-13 00:53:00
5:53 PM,48.9,44.1,83,29.81,10.0,WSW,3.5,-,N/A,,Mostly Cloudy,240,2011-12-13 01:53:00
6:50 PM,48.2,42.8,82,29.82,10.0,Calm,Calm,-,N/A,,Mostly Cloudy,0,2011-12-13 02:50:00
6:53 PM,48.9,43.0,80,29.83,10.0,Calm,Calm,-,N/A,,Mostly Cloudy,0,2011-12-13 02:53:00
7:01 PM,48.2,44.6,87,29.83,10.0,Calm,Calm,-,N/A,,Overcast,0,2011-12-13 03:01:00
7:31 PM,48.2,44.6,87,29.83,10.0,Calm,Calm,-,N/A,,Mostly Cloudy,0,2011-12-13 03:31:00
7:53 PM,48.0,45.0,89,29.85,9.0,Calm,Calm,-,N/A,,Mostly Cloudy,0,2011-12-13 03:53:00
8:53 PM,48.0,45.0,89,29.86,7.0,NW,3.5,-,0.00,,Mostly Cloudy,320,2011-12-13 04:53:00
9:53 PM,46.9,45.0,93,29.87,6.0,Calm,Calm,-,N/A,,Mostly Cloudy,0,2011-12-13 05:53:00
10:53 PM,48.0,45.0,89,29.89,7.0,Calm,Calm,-,N/A,,Mostly Cloudy,0,2011-12-13 06:53:00
11:53 PM,46.9,45.0,93,29.89,9.0,Calm,Calm,-,N/A,,Clear,0,2011-12-13 07:53:00